Time,TemperatureF,DewpointF,PressureIn,WindDirection,WindDirectionDegrees,WindSpeedMPH,WindSpeedGustMPH,Humidity,HourlyPrecipIn,Conditions,Clouds,dailyrainin,SoftwareType,DateUTC
2013-03-15 05:25:00,29.0,27.2,29.97,South,188,0.0,3.0,93,0.00,,,0.00,Wunderground v.1.15,2013-03-15 10:25:00,
2013-03-15 05:30:00,29.0,27.2,29.97,SSE,158,0.0,3.0,93,0.00,,,0.00,Wunderground v.1.15,2013-03-15 10:30:00,
2013-03-15 05:40:00,29.0,27.2,29.97,SSW,195,0.0,3.0,93,0.00,,,0.00,Wunderground v.1.15,2013-03-15 10:40:00,
2013-03-15 05:45:00,29.1,27.3,29.98,SSW,209,0.0,3.0,93,0.00,,,0.00,Wunderground v.1.15,2013-03-15 10:45:00,
2013-03-15 05:50:00,29.3,27.5,29.98,SSW,194,0.0,3.0,93,0.00,,,0.00,Wunderground v.1.15,2013-03-15 10:50:00,
2013-03-15 05:55:00,29.3,27.5,29.98,SSW,203,0.0,3.0,93,0.00,,,0.00,Wunderground v.1.15,2013-03-15 10:55:00,
2013-03-15 06:00:00,29.4,27.6,29.98,SSW,201,0.0,0.0,93,0.00,,,0.00,Wunderground v.1.15,2013-03-15 11:00:00,
2013-03-15 06:10:00,29.6,27.8,29.98,SSW,211,0.0,1.0,93,0.00,,,0.00,Wunderground v.1.15,2013-03-15 11:10:00,
2013-03-15 06:15:00,29.7,27.9,29.98,SSW,207,1.0,1.0,93,0.00,,,0.00,Wunderground v.1.15,2013-03-15 11:15:00,
2013-03-15 06:20:00,29.6,27.8,29.97,SSW,204,1.0,1.0,93,0.00,,,0.00,Wunderground v.1.15,2013-03-15 11:20:00,
2013-03-15 06:50:00,28.8,27.0,29.97,SSW,203,0.0,0.0,93,0.00,,,0.00,Wunderground v.1.15,2013-03-15 11:50:00,
2013-03-15 06:55:00,28.7,26.9,29.97,SSW,203,0.0,0.0,93,0.00,,,0.00,Wunderground v.1.15,2013-03-15 11:55:00,
2013-03-15 07:00:00,28.6,26.8,29.97,SSW,201,0.0,0.0,93,0.00,,,0.00,Wunderground v.1.15,2013-03-15 12:00:00,
2013-03-15 07:10:00,28.2,26.4,29.98,SSW,201,0.0,0.0,93,0.00,,,0.00,Wunderground v.1.15,2013-03-15 12:10:00,
2013-03-15 07:15:00,28.2,26.7,29.98,SW,218,0.0,0.0,94,0.00,,,0.00,Wunderground v.1.15,2013-03-15 12:15:00,
2013-03-15 07:20:00,28.2,26.7,29.98,SW,214,0.0,0.0,94,0.00,,,0.00,Wunderground v.1.15,2013-03-15 12:20:00,
2013-03-15 07:25:00,28.1,26.6,29.97,SW,214,0.0,0.0,94,0.00,,,0.00,Wunderground v.1.15,2013-03-15 12:25:00,
2013-03-15 07:30:00,28.1,26.6,29.97,SW,214,0.0,0.0,94,0.00,,,0.00,Wunderground v.1.15,2013-03-15 12:30:00,
2013-03-15 07:40:00,28.4,26.9,29.97,SSE,162,0.0,0.0,94,0.00,,,0.00,Wunderground v.1.15,2013-03-15 12:40:00,
2013-03-15 07:45:00,28.7,27.4,29.97,SSE,154,0.0,0.0,95,0.00,,,0.00,Wunderground v.1.15,2013-03-15 12:45:00,
2013-03-15 15:10:00,46.3,40.1,29.87,NNW,329,2.0,3.0,79,0.00,,,0.00,Wunderground v.1.15,2013-03-15 20:10:00,
2013-03-15 15:15:00,46.2,40.0,29.86,NNE,13,3.0,4.0,79,0.00,,,0.00,Wunderground v.1.15,2013-03-15 20:15:00,
2013-03-15 15:20:00,46.0,40.5,29.86,NE,41,4.0,4.0,81,0.00,,,0.00,Wunderground v.1.15,2013-03-15 20:20:00,
2013-03-15 15:25:00,45.8,40.3,29.86,NNE,29,4.0,4.0,81,0.00,,,0.00,Wunderground v.1.15,2013-03-15 20:25:00,
2013-03-15 15:30:00,45.7,40.8,29.86,NE,36,4.0,4.0,83,0.00,,,0.00,Wunderground v.1.15,2013-03-15 20:30:00,
2013-03-15 15:35:00,45.6,40.4,29.85,NE,38,4.0,7.0,82,0.00,,,0.00,Wunderground v.1.15,2013-03-15 20:35:00,
2013-03-15 15:40:00,45.4,40.2,29.85,NE,46,4.0,4.0,82,0.00,,,0.00,Wunderground v.1.15,2013-03-15 20:40:00,
2013-03-15 15:50:00,45.2,40.0,29.85,NE,38,4.0,4.0,82,0.00,,,0.00,Wunderground v.1.15,2013-03-15 20:50:00,
2013-03-15 15:55:00,45.1,40.2,29.85,ENE,57,5.0,5.0,83,0.00,,,0.00,Wunderground v.1.15,2013-03-15 20:55:00,
2013-03-15 16:00:00,44.8,40.3,29.84,NE,53,6.0,6.0,84,0.00,,,0.00,Wunderground v.1.15,2013-03-15 21:00:00,
2013-03-15 16:10:00,44.3,40.1,29.83,ENE,67,6.0,8.0,85,0.00,,,0.00,Wunderground v.1.15,2013-03-15 21:10:00,
2013-03-15 16:15:00,44.3,39.8,29.83,ENE,64,6.0,8.0,84,0.00,,,0.00,Wunderground v.1.15,2013-03-15 21:15:00,
2013-03-15 16:25:00,44.1,39.9,29.82,ENE,61,7.0,8.0,85,0.00,,,0.00,Wunderground v.1.15,2013-03-15 21:25:00,
2013-03-15 16:30:00,44.0,39.8,29.82,NE,49,7.0,7.0,85,0.00,,,0.00,Wunderground v.1.15,2013-03-15 21:30:00,
2013-03-15 16:35:00,44.3,40.1,29.82,ENE,65,4.0,7.0,85,0.00,,,0.00,Wunderground v.1.15,2013-03-15 21:35:00,
2013-03-15 16:40:00,44.4,39.9,29.82,SE,139,2.0,3.0,84,0.00,,,0.00,Wunderground v.1.15,2013-03-15 21:40:00,
2013-03-15 16:45:00,44.5,39.7,29.81,ESE,108,3.0,3.0,83,0.00,,,0.00,Wunderground v.1.15,2013-03-15 21:45:00,
2013-03-15 16:50:00,44.6,40.1,29.80,East,92,3.0,3.0,84,0.00,,,0.00,Wunderground v.1.15,2013-03-15 21:50:00,
2013-03-15 16:55:00,44.4,39.9,29.79,ENE,57,3.0,3.0,84,0.00,,,0.00,Wunderground v.1.15,2013-03-15 21:55:00,
2013-03-15 17:00:00,44.4,40.2,29.79,ENE,76,3.0,3.0,85,0.00,,,0.00,Wunderground v.1.15,2013-03-15 22:00:00,
2013-03-15 17:10:00,44.4,40.2,29.79,SSE,150,3.0,3.0,85,0.00,,,0.00,Wunderground v.1.15,2013-03-15 22:10:00,
2013-03-15 17:15:00,44.5,40.3,29.80,ESE,123,2.0,3.0,85,0.00,,,0.00,Wunderground v.1.15,2013-03-15 22:15:00,
2013-03-15 17:20:00,44.6,40.4,29.80,SE,128,1.0,1.0,85,0.00,,,0.00,Wunderground v.1.15,2013-03-15 22:20:00,
2013-03-15 17:25:00,44.6,40.1,29.80,ENE,71,1.0,1.0,84,0.00,,,0.00,Wunderground v.1.15,2013-03-15 22:25:00,
2013-03-15 17:30:00,44.4,40.2,29.79,ENE,67,1.0,3.0,85,0.00,,,0.00,Wunderground v.1.15,2013-03-15 22:30:00,
2013-03-15 17:40:00,44.2,40.3,29.79,SE,139,2.0,2.0,86,0.00,,,0.00,Wunderground v.1.15,2013-03-15 22:40:00,
2013-03-15 17:45:00,44.2,40.0,29.77,ENE,70,2.0,4.0,85,0.00,,,0.00,Wunderground v.1.15,2013-03-15 22:45:00,
2013-03-15 17:55:00,44.2,40.3,29.78,NE,44,3.0,4.0,86,0.00,,,0.00,Wunderground v.1.15,2013-03-15 22:55:00,
2013-03-15 18:00:00,44.2,40.3,29.77,ENE,66,3.0,5.0,86,0.00,,,0.00,Wunderground v.1.15,2013-03-15 23:00:00,
2013-03-15 18:10:00,44.1,40.2,29.76,East,89,3.0,3.0,86,0.00,,,0.00,Wunderground v.1.15,2013-03-15 23:10:00,
2013-03-15 18:15:00,44.2,40.3,29.76,SSE,155,2.0,3.0,86,0.00,,,0.00,Wunderground v.1.15,2013-03-15 23:15:00,
2013-03-15 18:25:00,44.3,40.4,29.78,SE,146,0.0,1.0,86,0.00,,,0.00,Wunderground v.1.15,2013-03-15 23:25:00,
2013-03-15 18:30:00,44.3,40.4,29.78,ENE,67,0.0,0.0,86,0.00,,,0.00,Wunderground v.1.15,2013-03-15 23:30:00,
2013-03-15 18:35:00,44.1,40.5,29.77,NNW,338,1.0,1.0,87,0.00,,,0.00,Wunderground v.1.15,2013-03-15 23:35:00,
2013-03-15 18:45:00,44.1,40.5,29.78,ENE,60,0.0,0.0,87,0.00,,,0.00,Wunderground v.1.15,2013-03-15 23:45:00,
2013-03-15 18:50:00,44.2,40.3,29.78,ESE,114,0.0,0.0,86,0.00,,,0.00,Wunderground v.1.15,2013-03-15 23:50:00,
2013-03-15 19:00:00,44.0,40.1,29.78,ESE,112,0.0,0.0,86,0.00,,,0.00,Wunderground v.1.15,2013-03-16 00:00:00,
2013-03-15 19:10:00,43.3,39.7,29.79,SE,135,0.0,0.0,87,0.00,,,0.00,Wunderground v.1.15,2013-03-16 00:10:00,
2013-03-15 19:15:00,43.0,39.4,29.79,NE,49,0.0,0.0,87,0.00,,,0.00,Wunderground v.1.15,2013-03-16 00:15:00,
2013-03-15 19:20:00,42.7,39.4,29.79,East,82,0.0,0.0,88,0.00,,,0.00,Wunderground v.1.15,2013-03-16 00:20:00,
2013-03-15 19:25:00,41.9,38.6,29.79,East,81,0.0,0.0,88,0.00,,,0.00,Wunderground v.1.15,2013-03-16 00:25:00,
2013-03-15 19:30:00,41.0,38.0,29.79,East,80,0.0,0.0,89,0.00,,,0.00,Wunderground v.1.15,2013-03-16 00:30:00,
2013-03-15 19:35:00,40.4,37.7,29.79,East,81,0.0,0.0,90,0.00,,,0.00,Wunderground v.1.15,2013-03-16 00:35:00,
2013-03-15 19:40:00,40.1,37.7,29.78,ENE,70,0.0,0.0,91,0.00,,,0.00,Wunderground v.1.15,2013-03-16 00:40:00,
2013-03-15 19:50:00,39.8,37.9,29.78,ENE,72,0.0,0.0,93,0.00,,,0.00,Wunderground v.1.15,2013-03-16 00:50:00,
2013-03-15 19:55:00,40.3,38.7,29.78,ENE,75,0.0,2.0,94,0.00,,,0.00,Wunderground v.1.15,2013-03-16 00:55:00,
2013-03-15 20:00:00,41.0,39.1,29.77,ENE,58,2.0,3.0,93,0.00,,,0.00,Wunderground v.1.15,2013-03-16 01:00:00,
2013-03-15 20:10:00,41.7,39.5,29.77,SSW,198,2.0,2.0,92,0.00,,,0.00,Wunderground v.1.15,2013-03-16 01:10:00,
2013-03-15 20:15:00,42.0,39.6,29.77,ENE,60,2.0,2.0,91,0.00,,,0.00,Wunderground v.1.15,2013-03-16 01:15:00,
2013-03-15 20:20:00,42.0,39.6,29.77,NE,47,2.0,2.0,91,0.00,,,0.00,Wunderground v.1.15,2013-03-16 01:20:00,
2013-03-15 20:25:00,42.1,39.7,29.76,NE,54,1.0,2.0,91,0.00,,,0.00,Wunderground v.1.15,2013-03-16 01:25:00,
2013-03-15 20:35:00,42.3,39.6,29.76,ENE,64,1.0,2.0,90,0.00,,,0.00,Wunderground v.1.15,2013-03-16 01:35:00,
2013-03-15 20:40:00,42.4,40.0,29.77,ENE,67,2.0,3.0,91,0.00,,,0.00,Wunderground v.1.15,2013-03-16 01:40:00,
2013-03-15 20:45:00,42.4,39.7,29.76,NE,56,3.0,4.0,90,0.00,,,0.00,Wunderground v.1.15,2013-03-16 01:45:00,
2013-03-15 20:50:00,42.5,39.8,29.76,WSW,243,3.0,3.0,90,0.00,,,0.00,Wunderground v.1.15,2013-03-16 01:50:00,
2013-03-15 20:55:00,42.5,39.8,29.75,ENE,68,2.0,3.0,90,0.00,,,0.00,Wunderground v.1.15,2013-03-16 01:55:00,
2013-03-15 21:00:00,42.4,39.7,29.75,East,82,2.0,3.0,90,0.00,,,0.00,Wunderground v.1.15,2013-03-16 02:00:00,
2013-03-15 21:10:00,42.3,39.6,29.75,SE,127,3.0,4.0,90,0.00,,,0.00,Wunderground v.1.15,2013-03-16 02:10:00,
2013-03-15 21:20:00,41.7,38.7,29.76,NE,50,3.0,4.0,89,0.00,,,0.00,Wunderground v.1.15,2013-03-16 02:20:00,
2013-03-15 21:25:00,40.8,38.4,29.75,ENE,65,3.0,4.0,91,0.00,,,0.00,Wunderground v.1.15,2013-03-16 02:25:00,
2013-03-15 21:30:00,40.3,38.2,29.75,ENE,61,3.0,3.0,92,0.00,,,0.00,Wunderground v.1.15,2013-03-16 02:30:00,
2013-03-15 21:35:00,40.0,37.9,29.75,ENE,60,4.0,4.0,92,0.00,,,0.00,Wunderground v.1.15,2013-03-16 02:35:00,
2013-03-15 21:40:00,39.6,37.7,29.74,ENE,68,4.0,4.0,93,0.00,,,0.00,Wunderground v.1.15,2013-03-16 02:40:00,
2013-03-15 21:45:00,39.3,37.4,29.74,ENE,73,4.0,4.0,93,0.00,,,0.00,Wunderground v.1.15,2013-03-16 02:45:00,
2013-03-15 21:50:00,39.1,37.2,29.74,NE,51,4.0,4.0,93,0.00,,,0.00,Wunderground v.1.15,2013-03-16 02:50:00,
2013-03-15 21:55:00,38.7,36.9,29.74,ENE,57,5.0,6.0,93,0.00,,,0.00,Wunderground v.1.15,2013-03-16 02:55:00,
2013-03-15 22:00:00,38.6,37.0,29.74,NE,50,5.0,7.0,94,0.00,,,0.00,Wunderground v.1.15,2013-03-16 03:00:00,
2013-03-15 22:10:00,38.8,36.9,29.74,ENE,60,7.0,7.0,93,0.00,,,0.00,Wunderground v.1.15,2013-03-16 03:10:00,
2013-03-15 22:15:00,38.3,36.2,29.75,NE,50,7.0,7.0,92,0.00,,,0.00,Wunderground v.1.15,2013-03-16 03:15:00,
2013-03-15 22:20:00,37.7,35.9,29.74,ENE,57,6.0,8.0,93,0.00,,,0.00,Wunderground v.1.15,2013-03-16 03:20:00,
2013-03-15 22:25:00,37.1,35.3,29.74,NE,53,7.0,8.0,93,0.00,,,0.00,Wunderground v.1.15,2013-03-16 03:25:00,
2013-03-15 22:30:00,36.5,34.7,29.74,NE,34,7.0,8.0,93,0.00,,,0.00,Wunderground v.1.15,2013-03-16 03:30:00,
2013-03-15 22:35:00,35.8,34.2,29.73,ENE,58,8.0,8.0,94,0.00,,,0.00,Wunderground v.1.15,2013-03-16 03:35:00,